Regional Weather Roundup
Issued by NWS Jackson, KY

Home | Current Version | Previous Version | Graphics & Text | Print | Product List | Glossary On
Versions: 1 2 3 4 5 6 7 8 9 10 11 12 13 14 15 16 17 18 19 20 21 22 23 24 25 26 27 28 29 30 31 32 33 34 35 36 37 38 39 40 41 42 43 44 45 46 47 48 49 50
000
ASUS43 KJKL 240710
RWRJKL

EAST KENTUCKY HOURLY WEATHER ROUNDUP
NATIONAL WEATHER SERVICE JACKSON KY
300 AM EDT SUN JUL 24 2016

NOTE: "FAIR" INDICATES FEW OR NO CLOUDS BELOW 12,000 FEET WITH
NO SIGNIFICANT WEATHER AND/OR OBSTRUCTIONS TO VISIBILITY.

* THESE REPORTS ARE NOT UNDER NWS QUALITY CONTROL AND MAY NOT
  REPORT WEATHER SUCH AS PRECIPITATION AND FOG.

KYZ079-080-083-085-087-088-110-112-115-119-120-240800
...EASTERN KENTUCKY...

CITY           SKY/WX    TMP DP  RH WIND       PRES   REMARKS
JACKSON        CLEAR     75  71  87 CALM      30.04F
LONDON         CLEAR     74  70  87 CALM      30.04F
SOMERSET*      CLEAR     72  72 100 CALM      30.04S
MONTICELLO*    CLEAR    N/A N/A N/A W5        30.04F
WILLIAMSBURG*  SUNNY     72  72 100 CALM      30.04F
MIDDLESBORO*   PTCLDY    72  72 100 CALM      30.06S
HARLAN APT*    PTSUNNY   70  68  94 CALM      30.07S
PIKE CO APT*     N/A     72  70  92 SE5       30.06S
MOREHEAD APT*  MOSUNNY   77  73  88 CALM      30.04S
ASHLAND*       CLEAR     73  73 100 MISG      29.98S
$$

KYZ035-036-041-042-044-050-067-078-099-240800
...CENTRAL KENTUCKY...

CITY           SKY/WX    TMP DP  RH WIND       PRES   REMARKS
MT STERLING*   CLEAR     73  73 100 CALM      30.03S
FLEMING/MASON* CLEAR     76  73  90 CALM      30.02S
DANVILLE*      CLEAR     73  72  94 SW3       30.04R
RICHMOND*      CLEAR     75  72  88 CALM      30.03R
LEXINGTON      CLEAR     76  72  87 SE3       30.01S
FRANKFORT      PTCLDY    76  72  87 NW3       30.00R
LOUISVILLE     CLOUDY    83  76  79 CALM      29.98R HX  91
LEBANON*         N/A     77  73  88 S3        30.02S
GLASGOW*       CLEAR     76  74  93 CALM      30.00F
BOWLING GREEN  CLOUDY    79  75  87 SE3       29.99S
$$

KYZ091>093-OHZ055-061-077-WVZ005-015-034-035-042-240800
...SOUTHERN OHIO/WEST VIRGINIA...

CITY           SKY/WX    TMP DP  RH WIND       PRES   REMARKS
COVINGTON      CLOUDY    77  73  87 CALM      30.01R
COLUMBUS       CLOUDY    77  72  84 CALM      29.99S
DAYTON         MOCLDY    76  72  87 SW5       30.01F
WILMINGTON     PTCLDY    75  73  93 CALM      30.01R
HUNTINGTON       N/A     75  73  93 CALM      30.00F FOG
CHARLESTON       N/A     73  72  96 CALM      30.02S
PINEVILLE*       N/A     71  67  89 MISG      30.12F FOG
BECKLEY          N/A     69  67  93 CALM      30.12S
BLUEFIELD        N/A     70  66  87 CALM      30.14F
LOGAN CO APT*    N/A     73  72  94 CALM      30.05S
$$

VAZ002-007-008-TNZ017-027-036-066-071-240800
...SOUTHWEST VIRGINIA/EAST TENNESSEE...

CITY           SKY/WX    TMP DP  RH WIND       PRES   REMARKS
WISE*            N/A     72  61  68 CALM      30.14F
JONESVILLE*      N/A     72  68  88 CALM      30.09S
ABINGDON*        N/A     71  69  92 CALM      30.11F
BRISTOL        CLEAR     70  68  93 N3        30.07F
MORRISTOWN*    MOSUNNY   72  70  94 CALM      30.05F
SEVIERVILLE*   SUNNY     70  66  88 SE3       30.04F
KNOXVILLE      PTCLDY    73  70  90 CALM      30.03F
OAK RIDGE      MOCLDY    74  71  91 CALM      30.05S
CROSSVILLE     CLEAR     69  68  96 CALM      30.08F
NASHVILLE      PTCLDY    74  70  87 S3        30.00S
$$

...KEY TO REMARKS...
VSB - VISIBILITY IN MILES
WCI - WIND CHILL INDEX
HX  - HEAT INDEX

$$



USA.gov is the U.S. government's official web portal to all federal, state and local government web resources and services.